Wind_Speed
69 65 59 53 50 48 46 44 42 43 46 46 46 46 45 44 45 47 49 49 50 49 49 49 49 52 57 61 65 65 62 57 52 51 52 54 54 55 56 57 59 61 60 60 61 60 59 59 59 58 57 57 55 53 53 53 54 53 52 50 47 43 41 38 35 34 37 39 38 34 31 32 36 39 40 38 36 35 31 28 26 25 25 27 28 29
70 64 58 55 54 53 50 46 45 45 45 44 44 45 45 44 44 47 49 50 49 47 48 49 48 49 54 58 62 61 59 56 53 50 50 51 50 50 51 53 55 57 57 58 59 59 59 59 60 60 59 59 58 57 56 55 54 54 53 51 47 45 44 43 41 39 38 39 39 39 36 35 38 41 42 42 41 40 36 31 29 29 29 30 31 30
68 61 58 58 58 56 53 49 47 47 46 43 43 45 45 45 46 48 49 50 49 46 47 47 46 47 50 54 56 57 56 55 52 49 48 48 47 47 48 50 52 53 54 55 56 57 58 58 60 61 61 61 60 60 58 56 55 55 54 51 47 46 46 46 46 45 42 40 39 41 40 38 39 41 43 44 44 43 40 35 32 32 33 34 34 33
66 61 61 60 59 57 54 51 49 48 46 43 42 42 45 46 47 48 50 51 49 45 46 46 45 46 46 48 50 52 53 52 51 49 47 47 47 46 47 48 49 51 52 51 52 54 56 57 59 61 62 62 61 60 59 57 56 56 56 52 45 45 47 47 48 47 45 43 41 41 41 38 38 41 42 42 43 43 42 40 36 35 36 37 37 37
67 64 63 62 60 58 55 53 51 49 45 43 40 40 44 47 48 49 51 52 48 45 46 46 44 43 43 44 47 49 51 51 51 50 48 47 47 46 46 47 48 49 49 48 49 51 53 55 58 60 62 62 62 60 60 59 58 57 57 54 47 45 47 47 47 46 45 45 42 40 39 38 39 41 41 41 42 43 44 44 41 39 39 39 40 41
69 66 65 63 61 59 56 54 53 50 46 43 40 39 43 47 50 52 52 50 46 44 45 44 42 41 41 43 46 47 49 50 50 49 49 48 48 47 47 47 47 47 46 46 47 49 51 54 56 58 60 61 61 60 59 60 59 58 59 57 50 46 46 45 46 45 44 44 43 41 40 40 41 41 41 41 42 42 43 44 43 42 43 43 44 44
70 68 66 64 62 59 57 56 54 52 48 44 41 41 45 48 51 52 52 48 45 45 45 42 39 40 40 41 44 46 48 48 48 49 49 49 48 49 48 47 46 46 45 45 45 48 50 52 53 55 57 59 59 59 58 59 59 58 59 58 53 47 45 44 43 44 44 43 42 42 42 42 42 42 41 42 42 42 42 42 43 44 46 46 46 47
70 68 67 64 62 60 57 55 54 53 49 45 44 46 47 49 51 53 51 47 45 45 44 40 38 38 38 39 42 44 45 46 48 49 49 50 50 49 48 47 46 45 44 44 45 48 49 50 51 52 54 56 58 58 58 59 59 58 59 58 53 46 43 42 41 42 43 43 42 42 42 42 43 43 43 43 44 43 43 43 43 45 47 48 49 50
70 69 68 65 62 59 56 55 56 54 51 49 50 51 50 50 51 51 50 48 47 45 41 38 37 36 36 37 38 40 42 45 47 49 50 50 50 49 48 47 46 45 44 45 46 46 47 48 49 50 52 54 56 57 57 57 58 58 58 58 52 45 42 40 39 40 42 42 43 43 44 44 44 44 45 45 45 44 44 44 45 46 47 49 51 52
72 71 70 68 63 59 56 57 58 55 53 55 56 54 53 52 49 48 48 49 48 42 36 35 35 34 34 35 36 37 41 45 48 50 50 50 50 49 47 47 47 46 45 45 45 45 46 47 47 49 51 52 53 54 54 54 56 57 57 55 51 45 42 40 37 36 37 39 41 44 45 46 45 45 46 46 46 45 44 44 44 46 47 49 50 51
73 72 72 68 64 61 61 62 60 57 59 62 59 56 55 51 48 46 47 50 46 37 33 35 34 32 33 34 34 36 42 47 49 50 50 50 50 49 47 47 47 46 44 43 43 44 45 45 45 47 49 50 50 51 51 52 53 54 55 52 49 47 44 40 37 34 33 34 38 43 46 46 46 47 47 46 45 44 44 44 44 45 47 48 50 50
74 73 70 67 65 64 65 65 62 61 64 64 59 58 55 50 48 45 45 47 42 34 34 36 33 31 31 32 34 37 41 46 48 49 50 51 50 48 48 47 47 46 43 41 41 42 42 43 43 44 46 47 48 49 49 50 50 51 51 49 47 46 44 41 37 33 31 30 32 37 42 44 46 47 47 47 45 44 43 43 44 45 46 47 48 49
74 71 69 68 67 67 66 65 63 64 65 62 58 57 53 49 46 42 41 41 37 35 37 36 32 30 30 32 36 38 40 45 48 49 50 50 49 48 48 48 46 44 41 39 39 39 39 39 37 37 42 44 45 47 49 49 49 48 48 47 45 45 43 40 36 33 31 31 32 35 38 41 43 45 46 47 46 44 43 43 43 44 46 47 48 49
75 73 71 69 67 66 64 62 59 60 60 58 56 53 50 47 42 38 37 36 35 38 40 36 31 29 29 33 37 38 41 45 47 47 48 49 48 48 48 48 46 43 41 39 37 37 37 36 32 31 39 43 43 46 48 48 48 48 48 47 45 45 42 39 35 32 30 32 36 37 39 42 43 44 44 45 45 45 45 44 44 45 46 47 48 49
75 72 68 65 64 63 61 58 57 60 60 58 56 53 50 46 41 38 36 34 35 38 40 36 31 29 30 34 37 38 41 43 43 44 47 48 49 49 48 48 46 43 41 38 36 36 36 35 35 35 39 42 43 45 46 47 47 47 47 47 45 44 42 39 37 35 34 36 39 39 40 42 43 43 44 44 44 45 45 45 46 46 47 48 49 49
74 70 66 64 63 62 61 59 61 64 63 60 58 54 50 46 44 41 38 36 36 38 38 36 32 31 32 35 37 37 39 39 39 42 46 48 50 50 49 48 46 43 40 38 36 36 36 35 37 39 41 42 42 43 44 45 46 46 46 46 44 43 41 37 33 36 40 41 40 39 38 38 40 42 43 44 44 44 44 45 46 47 48 48 49 48
73 71 70 68 66 64 62 62 63 63 61 58 56 52 50 49 47 44 39 37 38 37 37 37 35 33 33 34 35 36 37 37 38 41 44 47 50 50 49 48 46 43 41 38 36 35 35 36 37 40 43 44 42 41 42 43 45 45 45 45 43 42 41 34 27 30 36 37 37 36 35 35 36 39 41 43 44 45 45 46 47 48 48 49 49 49
74 73 71 69 68 66 65 66 66 64 61 57 53 52 54 53 48 44 41 38 36 35 36 38 37 35 33 33 33 35 36 37 38 40 43 47 50 50 49 48 46 44 41 39 36 34 35 37 37 37 39 41 42 42 42 42 43 44 45 45 44 42 41 38 33 32 32 33 34 34 34 34 35 37 39 41 43 44 45 47 48 49 49 50 51 51
75 74 72 70 70 70 70 70 68 64 60 57 55 56 56 51 45 43 41 37 35 34 35 38 38 35 33 31 32 34 37 37 37 39 42 47 50 50 49 48 46 44 42 39 37 35 35 37 38 38 38 39 41 42 42 41 42 43 43 44 44 43 41 40 39 37 35 34 34 34 34 35 36 37 37 38 39 40 42 44 46 47 49 50 51 51
75 75 74 73 73 73 73 71 65 60 59 58 57 57 54 50 47 44 42 39 36 34 35 37 37 35 33 31 32 35 37 37 36 38 42 47 50 50 49 49 47 45 43 41 39 38 37 37 38 40 40 40 41 41 40 40 41 41 42 42 43 42 41 41 40 39 37 35 35 35 36 36 37 38 37 36 36 36 38 40 41 43 45 46 47 47
76 77 75 75 76 74 70 64 59 58 58 55 53 53 51 49 47 45 42 41 38 36 36 36 37 37 35 33 34 36 38 37 36 37 41 45 48 49 50 50 48 46 45 43 41 40 39 38 38 39 40 41 41 40 39 39 40 41 42 43 43 42 41 40 39 38 37 36 35 36 36 37 38 38 38 38 38 39 39 40 41 43 44 44 45 46
76 77 77 77 75 70 64 60 60 61 59 56 54 53 51 49 47 44 41 39 37 36 36 36 37 39 38 36 35 37 38 38 36 37 40 44 47 49 50 50 49 48 47 45 43 41 40 40 39 39 40 41 41 41 39 39 39 40 41 42 43 42 42 41 40 39 38 37 37 36 37 38 39 39 40 40 41 42 43 43 44 45 45 46 47 47
78 78 77 76 71 66 65 65 66 65 62 60 59 58 55 52 48 45 42 40 38 35 34 35 36 39 39 37 35 36 38 38 37 37 39 43 46 48 50 50 49 49 48 47 45 43 41 41 40 39 40 41 41 42 41 39 38 39 40 41 41 41 41 40 40 39 39 39 39 39 40 40 41 41 41 42 43 43 44 45 46 46 47 47 48 48
78 77 76 74 72 71 71 71 70 69 65 62 60 59 56 53 50 47 45 42 39 36 35 34 35 38 39 37 35 35 37 39 38 38 39 42 44 46 49 51 50 49 49 49 47 45 42 42 42 41 40 41 42 43 43 42 40 39 40 40 41 41 40 40 40 40 41 41 41 41 41 42 43 43 43 43 44 44 45 46 46 46 47 47 48 48
77 76 75 76 76 76 76 74 72 68 63 59 57 56 54 53 52 49 46 43 40 38 35 34 34 37 39 38 37 36 37 38 37 37 38 40 40 42 48 52 51 50 50 49 49 47 45 44 44 44 42 42 42 44 45 45 43 42 41 41 41 42 41 41 41 41 41 41 41 41 41 42 43 43 43 44 45 45 46 47 46 46 47 48 48 48
80 78 77 76 75 73 70 67 62 56 53 53 53 53 53 53 51 49 46 43 40 38 35 34 35 37 39 40 38 37 36 36 34 35 36 36 36 39 46 51 53 51 50 50 49 48 47 46 45 45 45 44 43 44 46 47 47 45 44 43 43 43 43 42 42 42 42 41 41 42 43 44 44 44 44 45 45 45 45 45 45 46 47 48 48 48
82 79 77 75 72 68 64 60 56 53 53 53 52 52 51 51 50 49 46 43 41 39 36 34 35 36 38 40 39 37 36 35 34 34 35 35 36 39 45 50 52 52 51 49 48 48 48 47 46 45 46 45 45 45 46 48 48 47 46 45 45 45 44 44 44 43 43 42 43 43 44 45 46 46 47 47 46 45 44 44 44 45 46 47 47 47
81 78 74 72 70 68 66 63 60 58 57 56 54 53 52 51 50 48 46 43 42 40 37 35 35 35 37 40 40 38 36 35 34 35 35 36 37 40 43 46 49 51 51 49 48 47 47 47 46 46 47 47 48 47 47 48 48 48 48 47 47 46 45 45 45 44 43 43 43 44 45 46 46 47 48 48 47 46 45 45 45 45 46 47 47 47
82 77 73 72 71 70 69 66 63 61 59 57 56 55 54 52 50 48 46 44 42 40 38 37 35 34 36 39 40 39 37 35 35 35 35 36 37 39 41 44 46 49 50 48 47 47 47 48 49 49 48 49 49 49 49 49 49 49 49 48 48 47 47 46 45 45 44 44 45 45 46 46 46 47 47 48 47 47 47 47 47 47 48 49 49 49
82 78 75 74 72 70 69 67 64 63 61 60 58 56 55 53 51 49 47 45 43 42 40 38 36 34 34 36 39 39 37 35 35 34 35 36 37 40 42 43 45 47 47 46 46 47 49 50 50 50 49 49 49 49 49 49 49 48 48 48 48 48 47 47 47 46 46 46 47 48 48 48 49 49 49 49 49 49 48 48 48 49 49 49 49 49
83 79 77 75 73 70 68 66 63 62 62 61 59 56 54 53 52 50 48 46 45 44 42 39 37 34 32 34 37 38 37 35 34 34 35 37 39 40 42 43 44 45 46 46 46 47 48 49 49 49 50 50 49 49 49 49 49 48 48 48 49 49 48 48 48 48 48 48 48 49 49 49 49 49 49 50 49 49 48 48 48 48 49 49 49 50
82 80 77 75 72 70 67 64 63 62 62 62 59 56 53 52 52 50 49 48 46 45 42 39 36 34 33 33 36 38 38 36 35 35 36 37 39 41 42 43 43 44 45 46 46 45 46 46 47 49 50 50 50 50 49 49 48 48 48 48 48 48 48 48 48 48 49 50 50 50 49 49 49 49 49 49 49 49 49 48 48 49 50 50 51 51
81 79 77 74 70 68 66 64 63 63 63 60 57 53 52 52 52 51 50 49 47 45 42 38 35 34 33 33 34 37 38 37 37 36 36 37 39 40 41 41 42 44 46 46 46 45 45 45 45 47 49 50 50 50 49 49 48 48 47 47 46 46 46 46 47 48 49 51 51 51 50 49 49 48 48 48 49 49 49 49 50 51 52 52 53 54
80 78 76 73 70 68 67 66 65 63 61 57 54 52 52 52 52 51 50 49 48 45 41 38 36 34 32 33 34 36 38 39 37 36 36 38 39 38 38 39 41 43 44 45 46 46 46 45 45 45 46 48 49 47 46 46 47 46 45 44 44 43 43 44 46 47 49 50 50 49 48 47 47 47 48 48 49 49 50 51 53 54 54 55 55 54
78 77 76 73 71 69 68 67 64 61 58 55 54 53 52 53 52 51 49 47 45 43 40 37 36 34 33 33 35 37 39 39 38 37 39 39 39 38 37 38 39 40 42 43 44 45 46 46 45 45 44 46 47 47 44 42 42 43 43 43 42 42 42 43 44 46 47 47 47 46 46 46 47 48 49 49 49 50 52 54 55 56 56 55 54 52
76 76 75 73 71 69 67 64 61 59 57 56 55 55 54 54 53 50 47 45 43 41 39 37 37 36 34 34 36 38 39 39 40 41 41 40 39 37 36 36 37 38 40 40 42 44 45 46 46 45 45 46 48 48 47 45 43 42 43 44 43 43 43 44 44 44 45 46 47 47 47 47 47 47 48 49 51 52 53 55 55 56 56 55 53 52
76 76 74 72 69 67 64 61 59 58 58 58 57 57 56 54 52 50 48 46 43 41 40 40 39 37 36 35 37 39 40 42 43 43 42 40 37 35 35 35 36 37 38 39 40 41 43 45 46 45 45 46 47 49 51 50 48 46 46 47 46 45 44 44 44 45 46 47 47 47 47 46 45 44 45 48 50 52 53 54 54 54 55 55 55 57
75 74 72 70 68 65 63 61 60 60 59 59 58 58 56 55 53 52 50 47 45 44 43 43 42 40 38 37 38 40 42 44 46 45 43 40 37 34 34 35 36 37 38 38 39 40 41 43 43 44 44 45 46 48 50 51 50 50 49 49 49 47 45 44 44 45 46 47 47 47 45 44 45 47 49 52 52 52 53 54 54 54 54 56 57 59
71 71 71 69 67 65 63 62 61 61 60 60 60 59 58 57 55 54 52 50 48 46 46 45 43 41 40 39 39 42 44 46 47 46 43 40 36 34 33 34 35 37 37 38 39 39 40 41 42 42 43 43 45 46 47 49 50 50 49 50 49 48 47 45 44 44 44 44 44 43 41 40 42 44 47 52 53 52 52 53 54 55 56 57 57 57
68 69 69 68 67 65 64 63 62 62 61 61 61 60 59 57 56 55 52 49 47 47 46 45 43 42 40 39 39 42 46 48 49 47 44 40 37 34 33 33 34 36 37 38 38 39 40 41 41 41 42 42 43 43 44 45 47 48 48 47 46 44 43 41 39 38 39 39 39 39 38 38 37 37 41 49 53 54 56 57 56 56 56 56 55 55
65 66 67 67 66 65 65 64 63 62 62 61 60 59 58 56 55 53 51 49 48 48 47 45 43 42 41 40 41 43 47 50 49 47 43 40 37 34 33 33 34 35 36 37 38 38 39 40 40 40 40 41 42 42 42 42 44 45 45 44 42 40 38 35 34 36 38 39 39 41 40 38 36 35 40 49 55 57 57 56 55 54 54 53 53 54
61 63 63 64 65 64 63 63 61 61 60 60 58 57 55 54 53 51 50 49 49 48 47 45 43 42 42 42 42 44 47 49 48 46 43 40 37 35 34 33 34 35 36 37 37 38 38 37 37 37 38 39 40 41 41 42 43 43 42 41 40 39 35 34 37 41 44 43 43 44 43 40 38 39 44 50 55 55 53 50 49 50 51 52 54 56
59 60 61 62 63 62 61 61 60 59 58 58 56 55 54 53 52 51 50 49 49 48 47 45 43 43 44 44 44 45 47 48 48 46 43 41 39 37 35 33 34 35 36 37 37 37 37 36 36 36 36 37 38 39 40 41 41 41 40 38 37 35 33 36 40 42 44 45 44 43 43 41 40 42 45 49 54 55 53 52 51 50 52 54 57 58
58 60 61 61 62 62 61 60 59 58 58 57 56 55 54 53 52 52 51 50 49 48 47 46 45 45 45 45 45 45 46 47 47 46 44 41 40 38 35 32 33 35 36 37 37 37 36 36 35 35 35 35 36 37 39 39 40 40 39 36 34 32 34 40 44 46 46 45 44 43 43 41 39 41 44 49 54 56 56 56 56 56 56 57 57 58
58 60 61 61 61 61 61 60 59 58 57 56 56 55 54 53 53 52 51 50 49 48 47 47 47 46 46 46 45 45 46 47 47 47 45 42 41 39 35 32 33 34 35 36 36 36 36 36 35 35 35 35 35 36 36 37 38 39 39 37 36 37 39 41 44 45 46 46 47 47 46 43 41 43 47 52 56 57 58 59 58 58 57 57 56 56
58 59 60 60 60 60 59 59 58 57 57 57 56 55 54 53 53 52 51 50 49 48 48 48 48 47 46 46 46 46 47 48 48 47 46 44 43 40 36 34 34 35 35 36 36 36 37 37 37 37 36 35 35 34 34 35 36 36 35 34 35 39 42 45 46 46 45 45 44 42 40 39 39 43 49 52 54 55 56 55 55 56 56 56 57 57
57 58 58 58 58 58 58 57 57 57 58 57 57 56 54 54 54 53 52 51 50 49 49 49 49 49 48 46 47 47 48 49 48 47 47 46 43 40 37 36 36 36 37 37 37 37 37 37 38 37 37 36 35 35 34 34 33 32 32 31 32 34 37 42 45 45 44 42 39 37 37 39 42 48 51 52 52 52 52 52 53 55 56 57 58 59
55 56 57 57 57 57 57 57 58 58 58 57 57 56 55 55 54 53 51 50 49 49 49 49 49 49 48 47 48 50 51 51 50 49 48 47 44 41 39 38 38 38 38 38 38 38 37 37 37 37 37 36 36 35 35 33 30 31 34 36 37 39 39 40 42 44 42 38 35 36 38 41 45 50 52 52 51 51 52 54 56 57 58 60 62 64
55 56 57 57 57 57 57 58 59 59 58 57 57 56 55 54 53 52 51 50 49 49 49 49 49 49 48 48 49 51 53 52 51 50 48 47 45 43 41 40 40 40 40 39 39 39 38 38 38 38 38 37 37 37 37 35 35 37 41 42 43 45 46 45 45 45 43 39 37 38 40 43 46 49 50 51 53 54 57 59 61 62 64 66 67 67
54 55 56 56 57 58 59 59 59 58 58 57 57 55 54 54 53 52 51 50 50 50 50 50 50 50 49 49 50 52 53 53 52 50 49 47 46 45 43 42 41 41 41 41 41 41 40 40 39 39 39 39 38 38 38 38 39 41 44 46 46 47 49 49 48 47 47 45 46 48 49 50 51 53 54 55 58 60 62 65 67 68 68 68 67 66
53 54 55 56 57 58 58 59 58 58 57 56 55 55 54 53 53 52 51 50 50 51 51 51 51 51 50 50 51 52 53 53 52 51 49 48 47 46 45 44 43 42 42 42 42 42 42 42 41 41 41 40 40 40 39 39 40 42 44 46 48 49 51 52 51 50 50 49 49 52 55 56 57 58 59 61 63 65 67 68 69 69 68 67 67 68
Wind_Direction
229 230 231 232 233 234 234 232 229 227 227 225 224 223 223 225 227 230 232 232 232 232 231 227 225 227 230 231 232 232 233 233 230 230 233 235 236 238 240 241 243 244 244 244 244 243 242 242 243 243 243 243 244 244 243 245 248 251 254 257 255 255 257 258 254 248 242 241 241 244 253 264 269 273 278 280 282 283 284 286 289 291 296 303 309 312
227 228 230 231 231 231 230 228 226 226 226 224 222 222 223 225 228 231 232 233 233 232 232 229 226 228 231 233 234 234 233 232 230 228 231 235 235 236 239 240 242 243 243 243 243 243 242 242 242 242 242 242 242 243 244 244 246 248 251 254 253 251 254 258 258 254 250 248 247 248 253 259 263 269 274 277 280 282 282 284 288 290 293 299 304 309
226 226 228 229 231 231 230 228 226 226 226 224 222 221 222 224 228 231 233 234 232 232 233 231 228 228 231 234 236 236 235 233 231 227 228 232 234 234 236 238 240 242 242 242 242 242 241 241 241 241 240 240 240 241 242 243 244 245 247 250 250 248 250 255 259 259 257 256 253 251 253 259 265 269 272 273 276 280 282 284 286 288 290 294 299 304
224 224 226 227 229 230 230 229 228 227 227 225 223 222 222 224 227 231 233 233 231 230 232 231 229 228 230 234 236 237 236 234 232 228 226 228 231 232 234 236 238 241 242 241 241 241 240 239 239 239 239 239 238 239 240 242 242 242 244 246 246 247 249 251 256 258 258 257 256 254 255 261 267 270 272 273 272 275 280 283 284 287 289 291 294 298
221 221 223 225 226 228 228 228 228 229 229 227 224 223 223 224 226 229 232 232 230 229 232 231 229 229 229 232 233 233 234 232 230 227 225 225 228 230 232 235 237 239 242 242 241 241 240 239 238 238 238 237 237 237 238 240 240 240 242 243 243 247 251 251 252 256 255 254 255 255 256 261 266 269 271 273 271 271 276 280 283 287 288 289 292 295
218 218 220 222 223 224 225 227 227 228 228 226 224 223 225 225 226 228 231 232 230 229 232 231 230 229 228 230 231 230 230 230 228 226 224 224 226 228 231 233 236 239 241 242 242 242 241 240 238 238 238 237 236 236 237 238 239 239 240 242 242 244 250 251 250 251 252 251 252 254 256 261 265 268 271 272 271 271 273 277 281 286 288 289 291 293
216 217 219 220 221 221 221 223 225 226 226 225 223 222 224 225 226 228 230 230 229 229 231 231 230 229 229 230 231 229 228 229 227 225 223 222 224 227 229 232 235 239 241 242 243 243 242 241 239 238 238 237 236 235 235 236 237 238 240 242 242 243 247 248 248 248 248 248 251 254 257 262 265 268 271 272 273 273 274 275 279 284 287 289 291 292
215 216 218 219 220 220 220 221 223 224 225 224 222 222 224 226 227 227 228 228 228 228 229 228 229 229 229 231 233 231 228 227 227 224 222 222 223 225 228 231 234 238 241 242 242 242 242 241 240 239 238 237 236 234 235 236 236 237 239 241 242 242 242 244 246 247 247 248 252 255 258 261 265 268 272 274 274 274 275 276 278 281 284 287 288 290
215 215 216 217 218 219 219 220 221 222 222 221 220 221 223 226 227 227 226 227 227 227 227 228 229 229 228 229 232 232 229 227 226 224 222 222 223 225 228 232 234 237 239 241 241 242 242 241 240 238 238 237 236 234 234 236 237 237 238 240 241 240 239 240 244 246 248 251 254 257 260 263 266 269 272 273 275 276 277 278 280 281 283 284 285 287
214 214 214 215 215 215 216 218 219 219 219 219 219 220 223 226 228 228 226 227 228 226 226 228 229 229 230 230 229 228 228 227 225 223 221 221 222 224 227 231 234 236 238 239 241 241 242 241 240 238 238 237 236 235 235 236 237 238 239 240 239 238 237 239 242 245 249 253 256 259 261 264 267 269 271 273 275 277 278 279 280 281 283 284 284 286
213 213 213 213 212 212 213 215 216 216 217 218 219 220 222 225 228 228 227 227 226 224 225 227 227 228 230 231 228 225 226 227 225 222 221 220 220 223 225 229 233 236 237 239 240 240 241 241 240 239 239 238 237 236 236 237 238 239 240 240 238 237 238 239 242 247 253 260 264 263 262 263 265 267 270 272 274 276 278 279 280 281 283 283 284 285
212 212 213 212 211 211 212 213 213 213 216 218 220 221 223 225 228 229 228 228 225 222 225 226 225 225 228 230 229 225 225 226 225 223 220 219 219 221 224 227 231 235 237 238 239 240 240 240 240 241 241 240 239 237 236 237 238 239 239 240 238 237 239 242 244 247 253 258 260 260 260 261 264 267 269 271 273 275 277 279 281 281 282 282 284 285
212 212 211 211 212 212 212 213 213 214 217 219 221 223 225 227 230 230 231 230 225 223 226 225 222 222 225 229 229 226 225 226 224 222 220 218 218 220 223 226 230 233 235 236 237 239 239 239 239 242 245 242 239 239 237 237 238 238 238 239 237 236 239 242 245 248 252 250 246 249 257 263 266 268 269 270 272 274 276 279 281 282 282 283 284 285
212 212 211 211 212 213 213 214 215 218 221 222 223 225 228 230 233 234 234 231 224 223 226 223 219 219 223 229 230 227 226 226 223 221 220 218 218 219 223 227 229 231 233 234 236 236 237 234 226 228 238 239 237 238 238 238 238 237 238 238 237 236 238 243 246 247 246 244 244 250 260 267 269 270 270 271 272 273 275 277 279 281 282 283 284 285
211 212 211 211 213 214 215 214 215 218 220 221 223 225 226 228 231 231 231 228 224 225 225 220 216 217 222 228 231 229 229 227 224 221 220 220 219 219 222 226 228 229 230 232 233 234 234 229 219 219 229 233 234 237 237 238 239 238 237 238 237 238 240 244 247 246 242 244 251 260 266 270 271 271 271 272 272 273 275 276 278 279 281 283 283 284
210 210 210 210 212 213 214 214 215 217 218 218 220 222 224 225 227 227 226 224 222 224 223 218 214 215 221 227 231 231 230 228 225 222 221 222 223 221 221 225 227 228 229 230 231 231 230 225 219 222 227 229 232 235 236 237 238 238 238 238 238 240 243 246 250 252 250 252 260 267 271 273 273 273 273 274 275 276 277 277 278 279 281 283 284 285
209 208 207 207 209 210 211 213 216 218 220 220 220 221 222 224 224 224 224 222 222 222 220 215 212 214 219 225 230 231 229 228 226 223 222 224 227 225 223 224 227 228 229 229 229 229 227 221 218 223 227 230 233 235 236 237 237 238 239 238 239 241 243 242 240 245 251 258 265 271 276 277 276 275 275 275 277 278 279 279 279 280 281 283 284 285
208 208 207 206 206 208 209 212 215 217 218 219 220 220 221 223 224 223 223 223 222 222 221 215 211 212 216 222 228 229 227 226 225 223 223 226 228 227 224 224 226 228 229 229 229 229 226 220 218 222 226 230 234 236 235 236 237 238 239 240 240 241 242 239 233 236 251 264 270 275 278 279 279 278 276 276 277 278 279 279 280 280 281 282 283 285
207 207 207 206 206 206 207 210 213 214 215 216 216 218 221 223 224 224 224 224 223 222 222 218 212 211 214 219 225 227 225 223 222 223 225 226 227 227 226 226 226 227 228 229 230 231 228 222 221 222 224 228 234 236 236 236 236 238 239 240 242 242 242 241 239 244 256 267 272 275 278 279 279 279 278 278 278 279 279 279 280 280 281 282 283 284
207 206 205 205 206 206 208 210 211 213 216 216 215 217 219 220 220 221 221 222 221 220 221 219 212 210 212 215 221 226 226 223 221 222 225 226 226 227 228 228 227 227 227 229 231 232 230 227 225 225 226 229 233 236 237 237 237 238 239 239 240 241 242 243 245 251 260 267 271 274 276 277 278 279 278 278 279 279 279 280 281 281 282 284 285 286
206 206 205 205 207 207 208 210 211 214 216 218 219 219 221 221 220 220 220 220 220 219 220 217 211 210 211 213 218 223 225 224 221 222 225 226 226 227 228 229 229 228 228 228 231 232 232 231 229 229 229 230 232 235 237 239 239 239 239 239 240 241 242 244 248 254 260 266 269 272 274 276 278 279 279 279 278 278 279 280 282 284 286 287 288 289
206 206 206 207 208 208 208 209 211 213 214 214 217 219 221 221 221 221 222 222 222 221 221 218 212 210 211 213 217 221 224 224 221 221 224 226 227 228 229 229 230 230 230 230 230 231 233 233 233 233 233 232 233 234 237 240 242 242 242 242 243 244 245 247 250 255 261 266 269 272 275 277 280 281 281 280 278 278 279 281 282 284 286 288 289 290
206 205 205 207 208 206 207 208 210 211 211 211 212 214 216 218 219 220 221 222 222 222 222 220 216 213 213 215 218 221 224 224 220 219 222 225 227 228 229 229 230 231 232 232 231 231 232 234 235 235 236 235 234 234 237 240 242 243 244 245 246 246 248 250 253 257 262 267 270 274 276 279 281 282 282 280 280 280 281 281 283 284 286 287 288 289
205 205 205 205 205 205 205 207 208 210 210 210 211 212 213 214 216 217 218 218 219 219 220 220 217 215 215 216 218 221 225 225 221 218 221 224 226 229 230 230 230 231 233 233 232 232 232 234 235 236 237 238 236 235 236 239 241 243 244 245 246 247 249 251 255 259 264 268 271 275 277 279 281 281 281 280 280 281 282 283 284 285 286 287 288 288
204 205 206 205 205 206 207 208 209 210 211 211 212 212 212 213 214 216 217 217 217 218 218 218 218 216 215 216 217 219 224 225 221 218 220 223 226 231 232 231 231 231 232 233 233 233 233 234 234 236 237 238 238 237 236 238 240 242 243 244 246 247 250 253 257 262 265 268 272 274 276 278 280 281 281 280 281 282 283 284 286 287 287 287 288 288
203 204 205 206 207 209 212 215 216 216 216 216 216 215 214 214 215 216 217 217 218 219 218 218 219 217 216 218 219 220 223 225 222 219 217 219 223 230 233 232 232 232 232 233 234 235 235 235 236 237 238 239 239 239 238 239 241 243 244 245 247 249 252 255 259 262 265 269 271 273 275 277 279 280 281 281 282 283 284 286 287 287 288 288 289 290
204 204 204 206 207 208 212 216 218 218 218 219 219 218 217 216 215 216 217 217 218 220 220 220 221 219 218 218 220 221 223 224 224 220 216 215 218 226 232 233 233 234 233 232 234 236 237 238 238 239 240 241 241 241 241 241 242 245 246 248 249 252 254 257 260 263 265 268 271 273 275 276 278 279 280 281 282 284 284 286 287 288 289 290 291 292
204 205 205 205 206 206 207 209 212 216 217 217 217 217 218 218 216 216 217 217 218 220 221 222 223 222 220 219 220 222 223 223 224 222 219 217 219 225 231 234 235 236 236 234 233 236 238 238 239 240 241 242 243 243 243 244 245 247 248 250 251 253 256 258 261 263 265 268 270 273 274 276 278 279 280 280 281 282 283 284 285 287 289 290 292 294
202 204 205 205 206 206 206 206 208 212 215 216 216 216 216 217 217 216 217 217 218 220 222 223 224 224 223 222 221 222 223 223 223 223 222 222 224 226 230 233 236 237 238 237 236 237 238 238 239 240 241 243 245 245 246 246 247 248 250 251 253 255 257 259 261 263 265 268 270 272 275 277 279 279 280 280 281 282 282 283 285 287 289 291 294 296
201 202 204 206 206 206 207 207 207 209 212 214 216 216 215 215 215 216 216 216 217 219 221 222 223 223 224 224 223 223 224 226 225 224 224 225 228 229 229 232 235 236 238 240 239 239 239 239 239 240 242 244 245 246 247 248 249 250 251 253 254 256 258 260 262 264 267 270 272 274 276 277 278 279 279 279 280 281 282 284 285 287 289 291 294 295
202 202 204 206 206 206 207 208 209 209 211 213 215 216 215 215 215 215 214 215 215 217 220 221 222 223 224 223 223 222 223 226 228 227 226 227 229 230 230 231 234 236 237 239 241 241 241 241 241 242 242 243 244 246 247 249 251 252 254 255 257 259 261 263 265 267 269 271 273 274 276 277 277 277 277 278 279 280 281 283 285 287 289 291 294 295
203 203 204 206 207 207 207 208 210 211 212 214 214 215 215 215 215 215 215 215 216 217 219 220 221 223 225 225 223 222 222 225 228 229 230 230 230 231 231 232 234 235 236 238 240 241 243 243 244 244 244 244 244 246 248 250 252 254 256 258 260 262 264 266 268 269 270 271 272 273 275 275 275 276 277 277 278 279 280 282 284 286 288 290 293 295
203 204 204 205 206 207 207 208 210 213 215 216 215 215 215 216 215 215 215 215 216 218 219 220 221 224 227 228 225 222 222 224 227 230 232 233 234 233 233 233 234 235 236 237 238 240 241 242 244 246 247 246 246 246 247 249 251 254 256 258 260 263 265 267 268 269 270 271 272 273 273 274 275 275 275 276 277 278 279 281 283 285 288 290 293 295
202 203 204 204 204 206 208 209 210 213 215 217 217 217 217 217 217 216 216 216 217 218 219 219 220 223 226 228 226 223 222 224 227 230 232 233 235 235 235 235 236 236 237 237 237 239 240 240 242 244 247 249 249 248 248 248 250 251 253 256 258 261 264 266 267 269 270 271 272 272 273 274 274 274 274 275 276 277 278 281 283 286 288 290 293 295
200 201 202 203 203 205 208 210 211 212 213 215 216 217 218 219 219 219 219 219 220 221 221 220 221 222 224 226 227 224 223 225 227 230 233 234 234 234 235 236 237 238 238 237 238 239 240 240 240 240 242 245 248 249 251 251 251 251 253 254 255 257 260 262 264 267 269 270 270 270 271 273 273 274 274 274 275 277 279 281 284 286 288 290 293 295
199 200 201 202 203 205 207 209 210 211 211 212 214 215 216 218 219 220 221 222 222 223 223 223 223 224 225 226 226 225 224 226 228 230 233 234 234 235 236 238 239 240 240 239 239 239 240 240 241 240 240 241 243 246 249 251 252 253 254 254 255 256 258 260 262 265 266 267 267 268 270 274 277 278 278 277 278 279 280 282 284 286 287 289 292 294
198 198 200 201 203 204 206 207 208 209 210 211 213 214 215 216 218 219 219 220 221 221 221 221 221 223 224 224 223 222 223 226 229 231 233 235 236 236 237 238 239 240 240 240 240 240 240 240 241 241 242 242 242 244 246 248 250 251 253 255 256 258 260 262 265 267 267 268 270 271 273 275 276 278 279 280 282 283 283 283 284 285 285 287 289 292
197 197 198 200 202 203 204 205 206 207 209 211 213 214 215 216 216 217 217 217 218 218 218 218 219 221 222 222 220 219 222 226 229 231 233 235 236 237 238 239 239 239 239 240 241 242 242 242 242 243 244 244 244 245 246 248 250 251 253 255 257 259 261 264 267 269 271 273 273 274 275 275 273 273 275 277 280 282 282 282 282 282 284 286 289 291
196 197 197 199 200 202 203 204 206 207 209 211 212 214 215 215 216 216 216 216 216 217 217 217 219 220 222 223 220 218 220 225 228 230 232 234 235 237 239 240 241 241 240 240 240 242 243 243 242 243 244 246 247 247 248 249 250 251 253 255 257 259 261 264 268 272 275 276 275 274 275 276 276 278 279 279 279 278 277 279 280 281 283 286 288 289
194 196 198 199 200 201 203 204 205 207 208 210 212 213 215 216 217 218 217 217 218 219 220 219 221 222 224 226 224 220 221 225 228 229 232 233 234 236 238 241 242 242 241 240 240 241 242 243 243 243 243 245 247 248 250 250 251 252 253 254 257 259 260 264 270 272 271 270 271 272 273 274 279 282 279 276 277 277 279 281 282 282 284 287 288 289
195 196 198 199 200 201 203 204 205 207 209 211 213 215 216 218 219 219 219 219 219 220 221 221 222 225 226 228 227 223 222 226 228 230 231 233 234 235 237 240 242 243 242 241 240 240 242 243 243 243 244 246 247 249 251 253 254 253 254 255 257 258 259 261 259 256 257 261 268 272 273 275 279 277 270 269 274 279 283 285 285 286 287 287 287 289
196 197 199 201 202 203 204 206 207 208 210 212 215 217 218 219 220 220 220 220 220 221 222 222 223 226 228 230 229 226 224 226 229 230 232 234 235 236 237 237 239 242 243 242 242 242 243 244 245 245 246 247 248 250 251 253 254 254 254 254 254 255 257 258 253 249 250 258 266 271 272 273 274 271 268 269 272 275 279 281 283 285 286 285 286 288
196 198 200 202 203 205 206 208 210 211 213 215 216 218 219 220 220 220 220 220 220 221 222 223 224 227 230 231 232 229 226 226 229 231 231 233 235 236 236 236 238 240 242 243 243 243 244 245 246 247 248 249 250 251 252 253 254 254 253 252 253 256 255 254 253 250 251 255 262 268 270 271 271 270 269 268 269 270 273 275 278 280 281 282 285 287
197 198 200 202 204 206 208 209 211 213 215 217 218 218 219 219 219 220 220 219 219 220 221 223 224 227 230 232 233 231 227 226 229 231 231 233 234 235 235 237 239 242 243 245 245 245 245 245 246 248 249 250 251 251 252 253 254 254 252 249 248 248 246 246 250 251 252 252 254 258 264 268 269 265 261 261 264 266 269 272 274 276 278 281 285 287
198 200 201 203 205 207 209 210 212 213 215 217 218 218 218 218 219 219 219 219 219 219 221 223 225 227 231 234 236 234 229 227 229 231 232 233 234 235 235 237 240 243 245 246 247 247 247 246 247 248 249 250 250 249 250 252 255 255 254 250 244 240 238 241 247 250 252 254 255 258 263 266 264 258 253 254 258 262 266 270 272 274 278 282 285 286
199 201 202 204 206 207 209 211 212 213 214 216 217 218 218 218 219 219 220 220 220 220 221 223 226 228 231 234 236 235 231 229 230 232 233 234 234 235 235 236 240 243 244 245 247 247 248 247 247 247 247 248 248 247 246 246 248 253 255 255 252 248 245 245 248 251 252 254 256 260 263 262 258 254 253 254 258 262 267 270 272 275 279 282 283 284
200 201 203 205 207 208 209 211 212 213 214 215 216 216 217 218 219 220 221 221 221 221 222 224 226 228 230 232 233 232 231 230 230 232 233 234 235 236 236 237 239 241 242 244 245 246 247 247 247 248 248 248 248 247 245 243 245 250 253 249 246 246 247 247 247 247 248 251 255 259 262 260 256 255 256 258 260 263 266 269 272 275 277 279 281 284
201 202 203 205 207 209 210 211 212 213 214 215 216 216 217 218 219 221 222 223 224 224 225 225 227 229 231 232 231 229 229 229 230 231 233 235 236 236 236 237 239 241 242 243 244 245 246 248 248 250 251 251 250 248 246 242 238 240 244 242 240 241 243 244 245 244 243 247 254 258 259 257 255 255 257 259 260 261 263 266 270 272 274 277 281 284
202 203 203 204 206 208 209 211 213 214 215 216 216 217 218 219 220 222 222 224 225 226 227 228 229 231 233 233 231 228 227 229 230 232 234 236 237 237 237 238 239 241 243 244 244 245 246 247 248 249 250 251 250 249 247 241 233 230 233 236 239 241 242 243 246 248 246 242 241 243 247 249 250 252 254 255 256 258 260 263 267 270 273 278 281 284
203 203 203 204 205 207 209 211 213 214 214 216 217 218 219 220 222 223 223 224 225 227 228 229 231 233 234 234 231 229 228 229 230 232 234 236 238 239 239 240 241 242 243 244 244 244 246 247 248 248 249 249 249 248 248 245 240 235 234 235 237 241 243 245 248 253 252 247 241 239 242 246 249 252 253 254 255 256 259 263 267 271 275 278 281 282
203 203 204 205 207 208 210 212 213 214 215 216 217 219 220 221 223 224 225 226 226 227 228 230 232 235 235 233 231 229 228 229 231 233 234 237 239 241 242 243 244 244 245 245 244 245 246 248 249 250 250 250 250 249 249 248 246 244 242 241 241 243 246 248 249 252 254 253 250 247 246 247 249 252 254 256 257 259 261 265 268 271 274 277 279 281
Height
10570 10579 10589 10600 10606 10609 10612 10617 10621 10622 10623 10627 10632 10635 10637 10638 10639 10638 10637 10639 10642 10647 10651 10656 10659 10660 10659 10660 10662 10668 10676 10686 10694 10697 10699 10700 10702 10705 10707 10708 10708 10711 10716 10720 10724 10728 10731 10734 10736 10739 10741 10743 10746 10749 10751 10753 10755 10757 10759 10760 10762 10763 10763 10765 10767 10768 10768 10769 10769 10770 10771 10771 10771 10771 10770 10770 10771 10771 10770 10769 10769 10768 10768 10767 10767 10767
10564 10578 10590 10595 10597 10600 10604 10610 10614 10615 10617 10622 10628 10630 10633 10635 10634 10633 10633 10635 10639 10645 10647 10650 10655 10657 10657 10657 10659 10667 10675 10682 10688 10693 10695 10697 10700 10702 10704 10704 10705 10707 10711 10714 10718 10722 10726 10728 10731 10733 10735 10738 10740 10743 10745 10749 10751 10752 10754 10756 10757 10758 10759 10761 10762 10764 10765 10766 10767 10767 10767 10768 10768 10768 10767 10767 10768 10768 10768 10767 10766 10766 10765 10765 10765 10764
10564 10578 10585 10587 10589 10594 10599 10604 10608 10609 10613 10619 10623 10626 10629 10630 10628 10628 10629 10631 10636 10641 10642 10646 10651 10653 10654 10655 10659 10666 10672 10678 10684 10690 10693 10694 10696 10698 10699 10700 10702 10703 10706 10709 10713 10717 10720 10722 10725 10726 10729 10732 10735 10737 10740 10744 10746 10748 10749 10751 10753 10754 10756 10757 10758 10760 10762 10763 10764 10764 10764 10765 10765 10765 10764 10764 10765 10765 10764 10764 10764 10763 10763 10763 10762 10762
10562 10573 10576 10579 10583 10588 10594 10600 10603 10605 10610 10616 10620 10623 10625 10624 10624 10624 10623 10625 10632 10637 10637 10641 10645 10649 10653 10656 10659 10664 10668 10674 10680 10685 10689 10691 10692 10693 10695 10696 10698 10699 10701 10705 10709 10711 10714 10716 10718 10719 10722 10725 10729 10733 10736 10738 10741 10743 10745 10747 10749 10750 10752 10753 10755 10756 10758 10759 10759 10760 10761 10761 10761 10761 10761 10762 10762 10762 10762 10761 10761 10760 10760 10760 10760 10759
10556 10564 10567 10571 10577 10582 10589 10595 10599 10602 10608 10613 10616 10619 10619 10618 10619 10617 10616 10621 10629 10633 10633 10637 10642 10647 10652 10653 10655 10658 10662 10668 10674 10679 10683 10686 10688 10689 10691 10692 10694 10696 10698 10701 10704 10706 10708 10710 10711 10712 10715 10719 10724 10728 10730 10733 10735 10737 10739 10742 10745 10746 10747 10750 10752 10753 10753 10754 10755 10756 10757 10757 10757 10757 10758 10759 10759 10759 10759 10758 10757 10757 10757 10757 10757 10756
10549 10555 10558 10565 10571 10577 10585 10590 10595 10599 10604 10608 10612 10614 10612 10611 10611 10610 10612 10619 10627 10630 10630 10634 10641 10645 10648 10648 10649 10653 10657 10662 10668 10673 10678 10681 10684 10685 10687 10688 10690 10693 10695 10697 10700 10701 10702 10703 10705 10707 10710 10715 10719 10722 10725 10727 10730 10732 10734 10737 10741 10743 10743 10746 10748 10749 10749 10750 10751 10752 10753 10753 10754 10754 10755 10756 10756 10756 10755 10754 10754 10753 10753 10754 10754 10753
10541 10548 10552 10559 10565 10571 10579 10585 10590 10594 10598 10604 10608 10607 10604 10604 10604 10605 10610 10617 10624 10626 10627 10633 10639 10642 10645 10645 10646 10649 10653 10658 10663 10668 10673 10677 10679 10680 10682 10684 10687 10689 10691 10694 10695 10695 10696 10698 10700 10704 10707 10711 10714 10717 10720 10722 10724 10727 10730 10733 10737 10740 10740 10742 10744 10745 10746 10746 10747 10747 10748 10749 10750 10751 10753 10753 10753 10752 10751 10750 10750 10750 10750 10750 10750 10749
10537 10543 10547 10554 10560 10567 10575 10581 10585 10589 10595 10600 10600 10597 10597 10598 10599 10601 10608 10615 10619 10620 10624 10631 10636 10639 10642 10643 10644 10647 10651 10655 10658 10663 10668 10671 10674 10675 10678 10680 10683 10686 10688 10690 10690 10690 10692 10694 10697 10701 10703 10706 10709 10712 10715 10717 10720 10723 10726 10730 10733 10736 10738 10739 10740 10741 10742 10743 10744 10744 10745 10746 10747 10748 10749 10749 10749 10748 10747 10746 10746 10747 10747 10747 10746 10746
10531 10537 10543 10549 10556 10564 10573 10577 10579 10584 10590 10592 10590 10589 10591 10592 10594 10599 10607 10612 10614 10618 10625 10630 10633 10636 10639 10640 10641 10645 10649 10652 10654 10658 10662 10666 10669 10672 10674 10676 10679 10682 10683 10684 10685 10687 10689 10691 10695 10697 10699 10701 10704 10707 10711 10713 10716 10719 10722 10726 10730 10733 10734 10736 10737 10738 10739 10740 10741 10741 10741 10742 10744 10745 10745 10744 10744 10744 10743 10742 10742 10743 10744 10744 10743 10742
10522 10530 10534 10541 10551 10560 10567 10569 10572 10579 10583 10580 10580 10583 10585 10587 10592 10599 10605 10608 10611 10618 10626 10628 10631 10634 10636 10637 10640 10643 10645 10645 10647 10651 10656 10661 10665 10668 10670 10672 10674 10677 10679 10680 10682 10684 10686 10688 10691 10694 10695 10698 10701 10704 10707 10710 10712 10715 10718 10722 10726 10729 10730 10732 10734 10735 10737 10738 10739 10739 10739 10739 10741 10741 10741 10740 10740 10739 10738 10738 10738 10738 10739 10739 10738 10738
10515 10520 10525 10535 10546 10553 10557 10559 10565 10573 10571 10567 10573 10578 10580 10586 10591 10597 10602 10604 10610 10620 10625 10625 10628 10631 10633 10634 10637 10639 10639 10639 10643 10647 10651 10656 10660 10664 10666 10668 10670 10672 10675 10678 10680 10681 10683 10686 10689 10692 10694 10696 10699 10702 10704 10706 10709 10711 10715 10718 10722 10724 10727 10729 10730 10732 10734 10736 10738 10737 10736 10736 10737 10737 10736 10736 10736 10735 10734 10734 10734 10734 10734 10734 10734 10733
10508 10514 10524 10535 10541 10544 10547 10550 10558 10563 10559 10562 10571 10574 10578 10585 10590 10595 10600 10603 10613 10621 10621 10621 10625 10628 10630 10631 10632 10633 10634 10636 10638 10642 10646 10651 10656 10660 10662 10664 10666 10669 10672 10675 10677 10679 10682 10685 10688 10691 10693 10694 10697 10699 10701 10703 10706 10708 10711 10714 10717 10720 10723 10725 10727 10730 10732 10735 10738 10737 10733 10732 10732 10732 10732 10732 10732 10731 10730 10729 10729 10730 10730 10730 10729 10729
10505 10513 10522 10528 10532 10537 10541 10546 10553 10555 10555 10562 10569 10572 10579 10586 10589 10595 10600 10605 10614 10618 10615 10617 10623 10626 10628 10627 10627 10629 10631 10631 10633 10637 10642 10648 10653 10656 10658 10660 10663 10666 10669 10672 10675 10678 10680 10684 10689 10692 10691 10691 10694 10695 10697 10700 10702 10705 10708 10710 10713 10716 10719 10722 10724 10727 10730 10732 10736 10736 10731 10728 10728 10728 10728 10728 10728 10727 10727 10726 10726 10726 10725 10725 10725 10724
10500 10507 10514 10521 10529 10535 10540 10547 10554 10557 10559 10565 10570 10574 10581 10586 10590 10596 10599 10605 10611 10611 10610 10614 10620 10624 10624 10624 10624 10626 10626 10626 10630 10636 10641 10646 10649 10652 10655 10657 10659 10662 10666 10669 10672 10675 10677 10681 10686 10688 10685 10686 10689 10691 10693 10696 10698 10702 10704 10706 10709 10712 10716 10719 10721 10724 10727 10728 10730 10730 10727 10725 10725 10725 10724 10724 10723 10723 10723 10722 10722 10721 10721 10721 10720 10720
10496 10505 10515 10525 10531 10536 10542 10549 10554 10554 10556 10562 10567 10572 10578 10583 10589 10593 10596 10601 10605 10605 10606 10612 10618 10621 10621 10621 10620 10621 10622 10625 10631 10636 10640 10643 10645 10647 10650 10652 10655 10659 10663 10666 10669 10672 10674 10678 10682 10681 10679 10681 10685 10687 10689 10692 10695 10698 10701 10703 10706 10709 10712 10715 10718 10721 10722 10722 10722 10723 10722 10720 10720 10720 10720 10719 10719 10718 10718 10718 10718 10717 10717 10717 10717 10716
10493 10504 10515 10522 10527 10533 10539 10544 10545 10544 10548 10555 10561 10568 10575 10581 10584 10587 10591 10596 10599 10600 10604 10610 10615 10617 10618 10617 10617 10619 10622 10625 10630 10634 10637 10639 10640 10642 10645 10648 10652 10656 10660 10664 10666 10668 10671 10675 10678 10677 10676 10679 10682 10684 10687 10689 10691 10695 10698 10700 10703 10705 10708 10712 10716 10717 10716 10716 10716 10716 10716 10715 10715 10715 10715 10715 10715 10714 10714 10714 10713 10713 10713 10713 10713 10712
10491 10499 10505 10511 10519 10526 10532 10536 10538 10541 10547 10553 10559 10568 10573 10574 10577 10583 10587 10591 10594 10597 10601 10607 10611 10613 10615 10615 10615 10618 10620 10623 10627 10630 10633 10635 10635 10638 10642 10646 10650 10654 10657 10660 10663 10665 10668 10671 10673 10672 10674 10677 10679 10681 10683 10686 10689 10691 10694 10697 10699 10702 10704 10709 10712 10710 10709 10710 10711 10711 10711 10711 10711 10711 10711 10711 10711 10710 10710 10709 10709 10709 10710 10710 10709 10708
10487 10493 10498 10506 10513 10518 10524 10528 10531 10536 10543 10551 10559 10565 10564 10567 10574 10580 10584 10588 10592 10596 10599 10603 10607 10610 10612 10613 10614 10615 10618 10621 10624 10626 10629 10630 10631 10634 10639 10644 10648 10651 10654 10657 10660 10662 10664 10668 10669 10670 10673 10675 10676 10678 10680 10683 10685 10687 10690 10692 10695 10698 10701 10704 10705 10704 10704 10705 10706 10706 10707 10707 10707 10707 10707 10707 10707 10706 10705 10704 10705 10706 10706 10706 10705 10704
10481 10487 10494 10501 10505 10509 10513 10516 10522 10531 10539 10547 10553 10555 10557 10566 10574 10578 10582 10587 10591 10594 10597 10600 10604 10608 10610 10611 10611 10613 10615 10618 10621 10623 10624 10625 10628 10633 10637 10640 10644 10648 10651 10654 10656 10658 10661 10664 10666 10668 10670 10672 10672 10674 10676 10679 10681 10683 10686 10689 10692 10695 10697 10699 10700 10700 10701 10701 10701 10702 10703 10703 10704 10704 10703 10703 10703 10702 10701 10700 10701 10702 10702 10702 10701 10700
10476 10481 10487 10493 10497 10501 10504 10511 10522 10532 10537 10542 10546 10550 10557 10564 10569 10573 10578 10583 10587 10591 10593 10597 10602 10605 10607 10609 10609 10610 10612 10615 10618 10620 10620 10621 10626 10630 10633 10636 10640 10644 10648 10650 10653 10655 10657 10660 10663 10665 10667 10668 10668 10670 10672 10675 10677 10679 10682 10685 10688 10691 10692 10694 10695 10696 10697 10697 10697 10698 10699 10700 10700 10700 10699 10699 10698 10697 10696 10697 10697 10697 10697 10697 10697 10696
10468 10474 10482 10486 10489 10494 10504 10518 10529 10532 10535 10541 10547 10552 10557 10561 10566 10571 10575 10579 10583 10587 10589 10594 10599 10602 10604 10605 10606 10608 10610 10612 10615 10616 10617 10620 10624 10627 10629 10633 10637 10640 10643 10646 10649 10651 10653 10656 10658 10660 10662 10663 10664 10666 10668 10671 10673 10676 10679 10681 10684 10686 10688 10690 10691 10692 10692 10692 10693 10694 10694 10695 10696 10696 10695 10694 10693 10692 10692 10693 10693 10693 10693 10693 10693 10691
10465 10471 10477 10480 10486 10500 10514 10522 10524 10525 10530 10538 10545 10549 10554 10558 10564 10569 10573 10578 10581 10584 10588 10592 10595 10597 10599 10601 10603 10605 10607 10608 10611 10613 10615 10618 10621 10623 10626 10629 10633 10636 10639 10641 10644 10647 10649 10652 10654 10656 10657 10659 10661 10663 10665 10667 10670 10672 10675 10677 10679 10681 10683 10685 10687 10687 10688 10688 10688 10689 10690 10691 10691 10691 10690 10689 10688 10688 10688 10688 10688 10689 10689 10689 10688 10687
10457 10464 10471 10479 10493 10505 10510 10511 10513 10517 10523 10529 10535 10541 10547 10554 10561 10566 10571 10575 10578 10582 10586 10589 10592 10594 10596 10598 10600 10602 10604 10605 10608 10611 10613 10616 10619 10621 10623 10626 10629 10632 10634 10637 10640 10643 10646 10648 10651 10652 10653 10654 10657 10659 10661 10663 10666 10668 10670 10672 10674 10676 10679 10680 10682 10682 10683 10683 10684 10684 10685 10686 10686 10686 10685 10684 10683 10683 10684 10684 10684 10685 10684 10683 10683 10682
10450 10461 10470 10480 10489 10493 10495 10498 10503 10508 10514 10522 10529 10536 10544 10551 10557 10562 10566 10570 10574 10579 10582 10585 10589 10591 10593 10595 10597 10600 10601 10603 10607 10610 10612 10615 10617 10618 10620 10623 10626 10628 10630 10633 10636 10640 10643 10644 10646 10647 10648 10650 10652 10655 10657 10659 10661 10664 10666 10668 10670 10672 10674 10675 10677 10678 10678 10679 10680 10680 10681 10681 10681 10681 10681 10679 10678 10678 10679 10680 10680 10680 10679 10678 10678 10677
10452 10461 10468 10474 10478 10481 10484 10488 10494 10503 10514 10524 10530 10537 10543 10548 10553 10558 10562 10567 10572 10575 10579 10582 10585 10587 10589 10591 10593 10596 10598 10601 10606 10609 10611 10613 10615 10616 10616 10618 10621 10623 10626 10629 10633 10636 10638 10639 10641 10643 10645 10647 10649 10651 10653 10655 10657 10659 10662 10664 10666 10667 10669 10671 10673 10673 10674 10675 10676 10676 10677 10677 10677 10677 10676 10674 10674 10674 10674 10675 10675 10675 10674 10673 10673 10672
10445 10452 10461 10468 10475 10484 10491 10497 10506 10517 10525 10529 10532 10537 10541 10545 10551 10556 10561 10566 10570 10573 10577 10580 10582 10584 10587 10588 10591 10594 10597 10601 10604 10606 10609 10611 10613 10612 10611 10613 10616 10619 10622 10626 10630 10632 10634 10636 10638 10640 10642 10644 10646 10648 10650 10651 10653 10656 10658 10660 10661 10663 10665 10667 10668 10669 10670 10671 10672 10672 10673 10673 10673 10673 10671 10670 10670 10670 10670 10671 10671 10670 10669 10668 10668 10667
10441 10448 10457 10467 10478 10490 10498 10506 10514 10519 10522 10526 10531 10535 10539 10544 10549 10554 10558 10564 10568 10571 10575 10577 10579 10582 10584 10586 10588 10591 10595 10598 10601 10603 10605 10608 10608 10607 10606 10609 10612 10614 10618 10623 10626 10628 10630 10632 10634 10637 10639 10641 10643 10644 10646 10648 10650 10653 10655 10656 10658 10659 10660 10662 10664 10665 10666 10667 10667 10668 10668 10668 10669 10668 10666 10665 10665 10666 10666 10666 10666 10665 10664 10663 10663 10662
10441 10451 10460 10469 10477 10484 10489 10497 10505 10510 10514 10520 10525 10531 10536 10541 10546 10551 10556 10561 10565 10569 10572 10574 10577 10579 10582 10583 10585 10588 10592 10595 10598 10600 10602 10603 10604 10604 10605 10606 10608 10610 10613 10618 10622 10624 10625 10628 10630 10633 10635 10636 10638 10640 10643 10645 10647 10649 10651 10652 10653 10655 10657 10659 10660 10661 10661 10662 10662 10663 10663 10664 10665 10663 10661 10660 10661 10661 10662 10662 10662 10660 10659 10658 10658 10657
10441 10452 10460 10466 10473 10478 10484 10491 10498 10504 10510 10515 10520 10526 10531 10537 10543 10548 10553 10558 10562 10566 10568 10570 10573 10577 10579 10581 10583 10586 10589 10592 10594 10597 10599 10600 10601 10601 10601 10603 10604 10606 10609 10614 10618 10619 10620 10623 10626 10628 10631 10632 10634 10637 10639 10641 10643 10644 10646 10647 10649 10650 10652 10654 10655 10656 10657 10657 10657 10658 10659 10660 10660 10658 10656 10655 10656 10657 10657 10657 10656 10655 10654 10653 10652 10651
10440 10449 10455 10461 10469 10476 10482 10488 10494 10499 10505 10510 10516 10521 10527 10533 10539 10544 10550 10555 10559 10561 10564 10566 10570 10573 10576 10579 10581 10583 10586 10589 10592 10595 10597 10597 10596 10597 10598 10599 10600 10603 10606 10609 10611 10612 10615 10619 10623 10626 10628 10629 10630 10632 10633 10636 10638 10640 10641 10643 10644 10646 10648 10649 10650 10651 10651 10652 10652 10653 10654 10655 10654 10653 10651 10651 10651 10652 10652 10652 10651 10650 10649 10648 10647 10646
10440 10447 10452 10459 10466 10474 10481 10488 10493 10498 10502 10506 10511 10518 10524 10530 10536 10541 10547 10551 10554 10557 10559 10563 10567 10570 10574 10576 10578 10580 10583 10586 10589 10591 10592 10592 10592 10593 10594 10596 10598 10601 10603 10604 10606 10609 10613 10617 10620 10622 10623 10624 10626 10628 10630 10632 10634 10636 10637 10638 10639 10641 10643 10645 10645 10646 10646 10647 10647 10648 10649 10649 10648 10647 10647 10647 10647 10647 10647 10647 10646 10645 10644 10644 10642 10641
10441 10447 10453 10459 10467 10474 10481 10487 10492 10496 10499 10503 10509 10516 10523 10528 10533 10539 10543 10547 10551 10553 10556 10561 10565 10568 10571 10573 10575 10577 10580 10583 10584 10585 10586 10587 10588 10589 10591 10593 10596 10598 10599 10601 10604 10608 10610 10613 10616 10617 10618 10621 10623 10624 10626 10628 10630 10632 10633 10634 10635 10637 10638 10639 10640 10640 10641 10641 10642 10643 10644 10643 10642 10642 10642 10642 10642 10642 10642 10642 10641 10640 10639 10639 10638 10636
10441 10447 10453 10460 10468 10475 10481 10486 10490 10493 10496 10502 10510 10517 10522 10526 10531 10536 10540 10544 10547 10550 10554 10559 10562 10565 10567 10570 10572 10575 10577 10579 10580 10581 10582 10583 10584 10586 10588 10591 10593 10594 10596 10599 10602 10605 10607 10610 10612 10613 10614 10617 10619 10621 10623 10624 10626 10627 10628 10629 10631 10633 10634 10634 10635 10635 10636 10636 10637 10638 10638 10638 10637 10637 10637 10637 10637 10637 10637 10637 10636 10635 10635 10634 10633 10631
10440 10446 10451 10459 10466 10472 10477 10481 10485 10490 10497 10505 10512 10517 10521 10524 10528 10532 10537 10541 10544 10548 10552 10556 10560 10562 10565 10566 10569 10571 10573 10574 10575 10577 10578 10578 10580 10582 10586 10588 10589 10591 10593 10597 10599 10601 10604 10606 10608 10609 10611 10612 10614 10617 10619 10620 10622 10623 10624 10625 10627 10628 10629 10629 10630 10630 10631 10632 10633 10633 10633 10632 10631 10632 10632 10633 10632 10632 10632 10631 10630 10629 10629 10629 10628 10626
10437 10443 10449 10456 10462 10467 10472 10478 10484 10491 10499 10505 10510 10514 10518 10521 10525 10529 10534 10539 10543 10547 10551 10554 10557 10559 10561 10563 10565 10567 10569 10571 10572 10573 10573 10573 10576 10579 10582 10584 10586 10588 10590 10593 10596 10598 10599 10602 10604 10606 10608 10608 10610 10611 10613 10615 10618 10619 10620 10621 10623 10624 10625 10626 10626 10627 10627 10628 10628 10628 10628 10627 10627 10627 10628 10628 10628 10627 10627 10626 10625 10624 10624 10623 10622 10621
10433 10440 10446 10452 10459 10464 10470 10478 10485 10491 10497 10502 10505 10509 10513 10516 10521 10527 10532 10537 10541 10545 10548 10551 10553 10555 10558 10560 10562 10564 10566 10567 10568 10567 10568 10570 10573 10576 10579 10581 10583 10584 10587 10589 10591 10593 10595 10597 10599 10602 10604 10605 10606 10607 10609 10611 10613 10616 10617 10618 10619 10621 10622 10622 10623 10623 10624 10623 10622 10623 10625 10624 10624 10624 10623 10623 10622 10622 10621 10621 10620 10619 10618 10617 10617 10616
10429 10436 10444 10451 10457 10463 10470 10478 10484 10489 10493 10497 10500 10504 10508 10513 10518 10523 10529 10533 10538 10541 10544 10546 10547 10550 10554 10556 10558 10560 10562 10562 10562 10563 10565 10568 10571 10574 10576 10578 10579 10580 10583 10585 10586 10588 10590 10592 10594 10597 10599 10600 10602 10603 10605 10607 10609 10612 10614 10614 10615 10617 10618 10619 10620 10620 10619 10619 10619 10620 10622 10622 10621 10620 10619 10618 10617 10616 10616 10615 10614 10613 10612 10612 10612 10610
10427 10435 10442 10449 10455 10462 10469 10475 10480 10484 10488 10492 10496 10500 10505 10509 10514 10519 10524 10528 10533 10536 10538 10540 10542 10546 10548 10551 10553 10555 10556 10557 10557 10559 10562 10565 10568 10571 10572 10574 10575 10576 10578 10580 10582 10583 10585 10587 10590 10592 10594 10596 10597 10599 10600 10602 10605 10607 10608 10609 10610 10613 10615 10616 10616 10616 10615 10615 10615 10616 10617 10617 10617 10616 10615 10613 10611 10610 10609 10609 10609 10608 10607 10607 10606 10605
10429 10436 10441 10447 10453 10459 10465 10471 10476 10480 10485 10488 10492 10496 10500 10505 10509 10514 10518 10523 10527 10530 10532 10535 10538 10541 10543 10546 10548 10551 10552 10551 10552 10554 10558 10562 10565 10567 10568 10570 10571 10572 10574 10576 10578 10579 10581 10583 10585 10588 10589 10591 10592 10594 10596 10598 10599 10601 10603 10604 10607 10610 10612 10613 10613 10613 10612 10610 10609 10610 10612 10612 10613 10614 10612 10607 10604 10603 10603 10603 10603 10603 10602 10601 10600 10599
10430 10436 10441 10445 10450 10456 10461 10467 10472 10476 10481 10484 10487 10492 10497 10502 10506 10510 10516 10521 10524 10526 10529 10532 10534 10537 10539 10542 10544 10546 10547 10546 10547 10551 10555 10558 10561 10563 10565 10566 10566 10568 10570 10572 10573 10575 10576 10578 10581 10583 10585 10586 10588 10589 10591 10592 10594 10596 10598 10600 10604 10607 10609 10610 10612 10612 10610 10606 10605 10606 10608 10609 10612 10614 10611 10602 10597 10595 10595 10596 10597 10597 10596 10595 10594 10593
10430 10435 10440 10445 10449 10454 10458 10463 10468 10474 10478 10481 10485 10490 10495 10500 10505 10509 10514 10518 10520 10521 10524 10528 10531 10533 10535 10537 10539 10541 10541 10542 10545 10549 10552 10555 10557 10559 10561 10562 10562 10563 10565 10567 10569 10570 10572 10574 10576 10579 10581 10582 10583 10585 10586 10587 10589 10591 10594 10598 10601 10603 10605 10608 10609 10608 10605 10603 10602 10602 10603 10606 10610 10612 10606 10598 10592 10590 10588 10588 10589 10589 10589 10589 10587 10586
10432 10436 10441 10445 10449 10453 10458 10463 10468 10472 10476 10480 10484 10489 10494 10498 10503 10506 10510 10514 10515 10517 10520 10524 10526 10528 10530 10532 10534 10536 10538 10539 10542 10546 10550 10552 10554 10555 10557 10558 10559 10559 10560 10562 10564 10566 10568 10570 10572 10574 10576 10578 10579 10581 10582 10583 10584 10586 10590 10594 10596 10599 10602 10604 10603 10601 10599 10599 10599 10596 10597 10603 10607 10606 10600 10593 10587 10585 10584 10583 10583 10583 10583 10583 10581 10580
10431 10436 10440 10445 10449 10454 10458 10462 10467 10471 10474 10478 10483 10487 10490 10494 10498 10502 10506 10509 10511 10514 10517 10520 10523 10524 10525 10527 10529 10531 10534 10536 10539 10542 10545 10547 10549 10551 10552 10553 10555 10555 10556 10558 10560 10562 10564 10566 10568 10570 10572 10573 10575 10577 10578 10578 10580 10582 10586 10589 10592 10597 10601 10600 10595 10593 10594 10596 10595 10592 10593 10599 10602 10600 10595 10588 10582 10580 10580 10579 10579 10579 10578 10577 10576 10575
10428 10433 10437 10442 10447 10451 10456 10460 10464 10467 10471 10475 10479 10483 10486 10490 10494 10497 10501 10504 10508 10511 10514 10516 10518 10519 10520 10522 10524 10526 10529 10532 10535 10537 10541 10543 10545 10546 10548 10550 10551 10552 10553 10554 10555 10558 10560 10562 10564 10566 10567 10569 10571 10573 10574 10575 10576 10577 10580 10585 10590 10594 10594 10590 10587 10587 10589 10592 10592 10591 10591 10594 10595 10592 10588 10583 10578 10576 10575 10575 10574 10574 10573 10572 10570 10569
10426 10430 10434 10438 10443 10448 10452 10456 10460 10464 10468 10471 10475 10479 10482 10486 10489 10492 10495 10499 10503 10507 10510 10512 10514 10515 10517 10518 10520 10522 10525 10528 10530 10532 10535 10538 10540 10541 10544 10546 10547 10548 10549 10550 10552 10553 10555 10557 10559 10561 10562 10564 10566 10569 10572 10573 10573 10573 10575 10580 10584 10586 10586 10583 10581 10583 10585 10587 10588 10589 10589 10589 10587 10582 10579 10576 10573 10572 10571 10570 10570 10569 10568 10567 10565 10563
10422 10427 10432 10436 10441 10446 10450 10453 10457 10461 10464 10467 10471 10475 10479 10483 10485 10488 10491 10494 10498 10502 10505 10507 10509 10512 10513 10514 10516 10518 10520 10522 10524 10527 10530 10532 10534 10537 10540 10542 10543 10544 10545 10546 10548 10549 10550 10552 10553 10555 10557 10559 10561 10565 10568 10568 10568 10570 10573 10576 10578 10580 10580 10579 10577 10578 10580 10581 10583 10584 10584 10583 10579 10573 10570 10569 10568 10567 10567 10566 10565 10564 10562 10561 10559 10558
10419 10425 10430 10435 10439 10443 10447 10451 10454 10457 10460 10463 10467 10471 10475 10478 10481 10484 10487 10490 10493 10496 10499 10502 10504 10506 10508 10510 10512 10513 10514 10516 10519 10522 10524 10526 10529 10533 10535 10537 10538 10540 10541 10542 10543 10544 10545 10547 10548 10549 10552 10554 10556 10559 10561 10563 10567 10570 10571 10571 10573 10573 10573 10572 10570 10571 10573 10575 10576 10578 10578 10576 10572 10567 10564 10564 10563 10562 10562 10560 10559 10558 10556 10555 10554 10553
10417 10422 10426 10431 10436 10441 10444 10447 10450 10452 10456 10460 10463 10467 10470 10473 10476 10480 10483 10486 10489 10492 10495 10497 10499 10501 10503 10505 10506 10507 10508 10510 10513 10516 10518 10521 10525 10528 10530 10532 10533 10534 10536 10537 10538 10539 10541 10542 10543 10545 10547 10549 10551 10553 10555 10559 10565 10567 10564 10563 10565 10565 10565 10564 10563 10564 10566 10569 10570 10571 10570 10569 10565 10562 10559 10559 10558 10557 10556 10554 10553 10551 10550 10549 10548 10547
10414 10418 10423 10427 10432 10436 10440 10442 10445 10448 10452 10456 10460 10463 10467 10470 10473 10476 10480 10483 10486 10488 10491 10493 10494 10496 10498 10500 10500 10501 10503 10505 10508 10511 10514 10517 10519 10522 10524 10526 10528 10530 10531 10532 10533 10535 10536 10538 10539 10540 10541 10543 10545 10547 10549 10553 10557 10557 10554 10554 10556 10556 10557 10557 10556 10556 10559 10562 10563 10562 10562 10560 10558 10555 10554 10553 10552 10551 10549 10548 10546 10545 10544 10543 10542 10541
10410 10415 10420 10424 10428 10431 10434 10437 10440 10445 10449 10453 10456 10460 10464 10467 10470 10473 10476 10479 10481 10483 10485 10488 10489 10491 10492 10494 10495 10497 10499 10501 10504 10507 10510 10512 10514 10516 10518 10521 10523 10525 10526 10527 10528 10530 10531 10533 10534 10535 10536 10538 10540 10541 10543 10545 10547 10547 10547 10548 10549 10549 10549 10550 10550 10550 10551 10553 10554 10554 10553 10552 10550 10548 10548 10547 10546 10544 10543 10541 10540 10539 10538 10537 10536 10535
10408 10413 10417 10421 10424 10427 10430 10433 10437 10442 10446 10450 10454 10458 10461 10463 10466 10468 10471 10474 10476 10478 10480 10481 10483 10484 10486 10488 10490 10492 10494 10497 10500 10503 10506 10508 10510 10511 10513 10515 10517 10519 10521 10522 10523 10525 10526 10528 10529 10530 10531 10533 10534 10536 10537 10538 10540 10540 10540 10541 10542 10543 10543 10543 10544 10544 10544 10545 10545 10545 10545 10544 10543 10542 10541 10540 10539 10538 10536 10535 10533 10533 10532 10531 10530 10529